Back to catalog

DELTA 1 DEB

AliveSSO
NORAD 8959·DEBRIS·🇺🇸 United States

Launched Jan 22, 1975 from Vandenberg Space Force Base

Loading…

Next Passes (next 24 hours)

TLE

FreshSource: Space-Track

Epoch: Sep 14, 2026, 09:54 UTC

1 08959U 75004AR  26257.41269645  .00000276  00000-0  86141-4 0  9995
2 08959  98.6936 234.4198 0063102 153.8103 206.6303 14.47550955655414

Track DELTA 1 DEB in real time with AllMySat

Download on the App Store